Vorticity
8 10 6 4 6 7 6 6 7 8 9 8 7 6 6 6 7 7 7 8 7 7 7 6 6 5 6 7 8 10 16 12 21 26 24 31 26 22 24 28 10 6 -3
11 6 3 6 6 5 4 4 5 8 10 9 8 7 6 6 6 6 7 7 7 7 6 7 6 6 6 6 8 8 16 12 15 21 16 24 25 27 33 30 7 19 20
9 4 5 5 4 3 4 6 11 11 12 10 7 6 8 9 8 7 8 6 6 7 6 7 7 6 7 7 8 9 16 12 12 16 11 16 20 19 22 16 14 16 33
7 6 6 3 2 5 8 11 12 14 13 8 6 9 9 8 8 7 8 8 7 7 7 7 7 7 6 7 8 8 11 17 10 13 16 12 5 14 16 17 14 26 7
6 5 3 1 0 13 15 10 9 13 11 7 7 5 6 6 6 6 7 9 9 9 7 7 6 8 8 8 8 9 10 8 10 19 9 14 10 8 7 10 14 11 30
5 4 2 3 -2 8 16 13 9 9 9 7 5 4 3 5 6 7 8 8 7 8 9 7 7 7 8 8 8 8 8 11 13 10 9 7 10 16 8 8 -0 -1 3
6 5 2 -0 -1 3 10 13 11 9 7 5 5 6 6 6 5 4 4 3 4 8 9 8 7 7 7 8 7 8 8 9 21 -3 7 6 6 16 -0 6 13 11 13
5 3 2 1 -1 2 8 11 10 8 8 7 6 5 3 3 4 5 6 8 10 11 10 9 7 6 7 7 7 7 8 7 6 15 14 2 7 4 3 6 4 6 9
5 2 2 0 3 6 8 11 5 4 6 6 6 5 4 6 4 1 6 8 7 9 12 12 9 7 6 7 7 7 7 7 6 5 5 9 11 7 9 12 9 10 9
1 3 5 4 4 10 14 10 7 -1 3 9 10 9 8 10 1 3 9 11 6 9 11 11 12 10 7 6 7 7 7 7 7 7 6 4 8 9 7 5 5 6 6
6 3 -1 4 11 14 7 3 1 -2 -0 14 15 17 14 8 3 6 9 8 11 7 9 10 12 13 10 7 6 7 7 7 7 7 8 9 8 7 6 6 6 5 -1
-4 2 9 13 14 8 6 7 4 -7 -9 15 14 11 12 13 15 15 14 11 8 9 10 9 9 12 12 9 7 6 7 7 7 7 8 8 9 9 11 10 6 4 9
3 11 11 8 4 8 9 6 8 -5 -4 15 12 11 11 11 12 12 11 12 13 12 12 9 8 10 14 14 9 7 6 7 7 7 8 8 8 8 10 11 12 11 10
8 5 10 10 12 11 7 6 1 3 10 15 10 10 10 11 11 10 10 11 11 12 14 12 10 9 10 13 12 9 6 6 7 8 8 8 9 10 10 9 10 11 10
16 12 10 5 1 -1 4 11 19 18 12 8 10 12 12 11 12 14 15 14 12 12 11 13 15 10 9 10 12 11 9 8 7 8 8 8 9 9 10 10 10 10 11
12 6 -1 -3 -3 10 19 12 6 7 11 12 12 12 12 12 11 12 12 12 14 14 12 12 11 14 11 9 9 11 11 9 9 8 8 8 8 9 9 10 10 11 11
7 -1 -5 -4 12 18 12 13 14 15 15 15 13 12 11 10 10 11 11 12 13 14 15 15 13 13 12 11 9 9 10 10 10 10 9 10 9 10 10 10 10 11 11
-7 -6 -5 -1 19 13 11 13 16 16 15 13 11 10 10 10 11 10 11 11 12 15 17 17 16 16 16 14 10 9 8 10 12 11 10 10 10 9 10 10 10 10 9
-4 -5 9 24 9 10 11 14 14 14 13 11 10 11 11 10 12 15 16 15 15 12 11 17 20 19 21 19 18 11 10 9 8 10 10 10 10 9 8 9 10 10 11
-6 23 17 1 11 13 16 15 12 11 11 10 9 10 11 10 9 8 8 8 7 9 15 11 8 15 21 19 18 18 14 13 11 7 9 6 9 11 9 9 10 9 9
21 2 3 13 17 17 17 14 11 10 8 8 8 8 7 7 6 7 5 5 4 4 9 9 15 17 13 16 18 16 16 19 16 13 -1 26 18 6 7 8 9 10 8
4 2 11 18 18 14 13 10 7 2 5 10 7 5 3 3 4 5 6 7 6 7 5 7 9 2 10 21 14 14 13 13 14 17 21 12 22 15 13 5 7 10 9
11 21 19 14 19 11 11 7 2 3 7 8 6 7 7 10 5 4 9 11 10 6 5 5 4 7 5 6 11 19 18 13 14 13 10 13 18 23 19 16 4 3 3
16 13 21 17 12 11 9 8 14 19 15 17 18 7 2 3 -1 -1 -1 1 1 2 6 10 11 9 4 1 6 4 8 19 14 15 14 11 7 16 18 23 12 7 9
33 28 24 20 17 13 14 16 8 2 3 6 10 8 7 6 7 6 6 7 3 4 6 3 3 3 5 9 6 1 8 6 11 17 16 13 18 13 13 18 24 13 10
10 11 8 8 9 11 16 13 10 13 12 10 8 7 4 2 4 5 8 5 6 6 6 6 5 6 7 5 6 9 8 5 7 4 14 23 16 9 14 15 21 21 11
Height
3133 3134 3134 3134 3133 3132 3131 3129 3127 3125 3123 3121 3119 3116 3114 3111 3109 3106 3103 3099 3096 3092 3088 3084 3079 3074 3068 3062 3055 3049 3041 3034 3026 3020 3017 3015 3015 3020 3025 3033 3042 3047 3048
3132 3133 3133 3132 3132 3130 3128 3126 3124 3122 3120 3118 3116 3114 3112 3109 3106 3102 3099 3095 3091 3087 3084 3080 3076 3071 3066 3060 3053 3045 3039 3033 3026 3020 3017 3016 3017 3019 3022 3029 3038 3043 3045
3131 3131 3131 3131 3130 3128 3126 3124 3121 3118 3116 3114 3112 3110 3107 3104 3101 3098 3094 3090 3087 3083 3080 3076 3072 3067 3063 3058 3052 3045 3038 3033 3027 3022 3021 3019 3018 3020 3023 3028 3037 3041 3044
3130 3130 3130 3129 3128 3126 3123 3119 3116 3114 3112 3110 3109 3106 3103 3101 3098 3095 3090 3086 3083 3079 3076 3073 3068 3064 3060 3054 3050 3044 3040 3034 3030 3026 3024 3023 3022 3022 3025 3029 3035 3039 3043
3128 3128 3127 3126 3125 3121 3118 3115 3112 3110 3108 3107 3105 3102 3099 3097 3094 3090 3087 3082 3078 3075 3072 3068 3064 3061 3058 3053 3048 3043 3039 3036 3031 3028 3026 3026 3025 3025 3026 3028 3032 3035 3038
3126 3125 3124 3123 3121 3118 3115 3112 3110 3107 3105 3103 3101 3099 3096 3093 3090 3086 3083 3079 3074 3070 3067 3063 3060 3058 3054 3051 3046 3042 3039 3037 3033 3030 3028 3027 3027 3028 3028 3028 3029 3031 3033
3124 3123 3122 3120 3118 3115 3112 3110 3107 3104 3102 3100 3097 3095 3092 3089 3085 3082 3078 3075 3071 3066 3062 3059 3055 3052 3049 3046 3043 3041 3039 3036 3034 3031 3030 3027 3027 3027 3028 3028 3030 3030 3030
3122 3121 3120 3117 3115 3112 3110 3107 3105 3102 3100 3097 3094 3090 3087 3083 3080 3076 3072 3068 3065 3061 3057 3054 3051 3047 3044 3041 3039 3037 3035 3034 3032 3031 3029 3028 3027 3026 3025 3024 3025 3025 3026
3119 3118 3116 3114 3112 3109 3106 3103 3101 3099 3095 3092 3088 3085 3081 3077 3074 3070 3065 3061 3057 3054 3051 3047 3044 3041 3039 3037 3035 3033 3031 3030 3028 3027 3026 3025 3024 3023 3022 3021 3020 3020 3021
3117 3115 3113 3110 3107 3104 3101 3099 3096 3093 3090 3087 3082 3078 3074 3069 3066 3062 3058 3054 3050 3046 3043 3039 3037 3035 3033 3031 3029 3027 3025 3024 3023 3022 3021 3021 3020 3019 3018 3018 3018 3018 3017
3112 3110 3108 3105 3102 3099 3096 3094 3091 3088 3085 3080 3074 3070 3066 3062 3058 3054 3050 3047 3043 3039 3036 3032 3030 3027 3025 3024 3022 3020 3019 3017 3016 3015 3014 3013 3013 3013 3012 3012 3011 3011 3011
3106 3105 3102 3098 3096 3093 3091 3088 3085 3081 3076 3071 3066 3062 3057 3054 3050 3046 3042 3038 3035 3032 3029 3025 3022 3020 3017 3015 3014 3013 3011 3010 3009 3007 3006 3005 3005 3005 3005 3004 3003 3003 3002
3100 3098 3095 3092 3090 3087 3084 3081 3077 3073 3069 3064 3059 3055 3050 3046 3041 3037 3033 3029 3026 3023 3020 3017 3014 3012 3011 3008 3006 3004 3003 3002 3001 3000 2999 2998 2997 2996 2996 2997 2996 2995 2994
3095 3092 3090 3086 3084 3081 3077 3073 3070 3065 3061 3056 3051 3046 3042 3037 3033 3029 3025 3021 3017 3014 3011 3008 3006 3004 3001 2999 2998 2996 2995 2994 2994 2993 2992 2991 2990 2989 2988 2987 2987 2987 2986
3089 3086 3084 3080 3078 3076 3071 3066 3061 3056 3051 3047 3042 3038 3033 3028 3024 3020 3016 3012 3008 3005 3003 3001 2998 2995 2993 2991 2989 2987 2987 2986 2985 2984 2983 2982 2981 2980 2979 2978 2977 2977 2976
3082 3080 3078 3074 3069 3065 3061 3056 3051 3046 3042 3037 3032 3028 3025 3021 3016 3012 3009 3005 3001 2997 2994 2991 2988 2987 2985 2983 2980 2977 2976 2975 2974 2974 2973 2972 2971 2971 2970 2970 2970 2970 2969
3075 3073 3070 3065 3060 3056 3052 3048 3044 3039 3034 3029 3025 3021 3017 3014 3009 3005 3000 2996 2993 2989 2985 2982 2978 2976 2975 2972 2970 2968 2966 2965 2965 2964 2963 2962 2962 2962 2961 2961 2961 2960 2960
3067 3063 3058 3053 3050 3046 3042 3038 3033 3029 3026 3022 3018 3014 3010 3007 3003 2999 2994 2989 2986 2981 2977 2974 2969 2966 2965 2961 2958 2956 2955 2956 2955 2953 2952 2952 2952 2951 2950 2950 2951 2950 2951
3058 3054 3051 3045 3041 3037 3033 3029 3025 3022 3018 3015 3012 3007 3003 3000 2996 2992 2987 2982 2979 2974 2970 2965 2961 2957 2955 2951 2949 2946 2945 2945 2945 2943 2942 2942 2942 2941 2940 2940 2940 2940 2941
3052 3047 3043 3038 3032 3029 3025 3021 3017 3014 3011 3008 3004 3000 2996 2992 2988 2984 2980 2976 2972 2968 2963 2960 2955 2950 2947 2942 2939 2936 2935 2936 2935 2934 2933 2932 2931 2930 2930 2930 2930 2930 2931
3042 3037 3034 3029 3023 3019 3016 3013 3010 3007 3005 3002 2998 2994 2989 2985 2981 2978 2974 2970 2966 2962 2958 2955 2950 2945 2940 2936 2932 2928 2926 2926 2924 2924 2922 2920 2918 2918 2918 2918 2920 2921 2920
3032 3027 3022 3020 3015 3010 3007 3005 3002 2999 2997 2994 2991 2987 2983 2979 2974 2970 2967 2963 2958 2955 2951 2947 2944 2939 2934 2929 2925 2921 2918 2916 2914 2913 2910 2909 2906 2905 2906 2907 2909 2909 2909
3021 3017 3013 3010 3008 3004 2999 2996 2993 2989 2988 2985 2982 2978 2974 2970 2966 2961 2957 2954 2950 2945 2942 2938 2935 2932 2928 2923 2918 2914 2910 2906 2903 2902 2899 2897 2895 2894 2894 2895 2896 2897 2898
3011 3007 3003 3000 2999 2997 2993 2988 2984 2979 2977 2974 2972 2968 2964 2960 2957 2953 2949 2944 2941 2936 2931 2928 2924 2921 2919 2915 2910 2906 2901 2897 2893 2889 2887 2886 2884 2883 2883 2884 2883 2884 2886
3001 2997 2994 2991 2990 2987 2984 2980 2976 2971 2968 2965 2962 2958 2954 2950 2946 2943 2938 2934 2931 2925 2920 2917 2912 2908 2906 2904 2900 2897 2894 2889 2884 2879 2877 2874 2873 2873 2872 2873 2872 2872 2873
2991 2988 2985 2982 2981 2978 2976 2973 2969 2964 2960 2955 2952 2948 2944 2939 2935 2930 2927 2926 2919 2914 2910 2905 2898 2894 2891 2889 2886 2883 2882 2879 2874 2870 2866 2864 2863 2862 2862 2861 2861 2861 2862